Tracking 33464 objects as of 13-Mar-2026
HD Live streaming from Space Station
objects crossing your sky now

DELTA 4 R/B

Track DELTA 4 R/B now!


NORAD ID: 35492
Int'l Code: 2009-033B
Perigee: 6,669.6 km
Apogee: 35,057.9 km
Inclination: 13.0 °
Period: 745.5 minutes
Semi major axis: 27234 km
RCS: 39.3633 m2 (large)
Launch date: June 27, 2009
Source: United States (US)
Launch site: AIR FORCE EASTERN TEST RANGE (AFETR)

Note: This is a ROCKET BODY
Your satellite tracking list
Your tracking list is empty




NASA's NSSDC Master Catalog

Two Line Element Set (TLE):
1 35492U 09033B   26072.52170473 -.00000071  00000-0  00000-0 0  9993
2 35492  12.9945  92.4078 5211782 108.8885 323.5552  1.93160509117917
Source of the keplerian elements: AFSPC